Location: St. Louis
(38.6270°N, 90.1994°W)
Time: 05:11:42
(UTC-05:00)

ISS - Pass Details

Date: 24 April 2014
Orbit: 401 x 404 km, 51.6° (Epoch: 29 July)

Event Time Altitude Azimuth Distance (km) Brightness Sun altitude
Rises 20:08:50 0° 312° (NW) 2,358 2.1 -5.0°
Reaches altitude 10° 20:10:58 10° 317° (NW) 1,491 0.8 -5.4°
Maximum altitude 20:14:15 53° 35° (NE) 517 -2.9 -6.0°
Drops below altitude 10° 20:17:31 10° 114° (ESE) 1,478 -1.2 -6.6°
Enters shadow 20:17:47 - 115° (ESE) 1,583 -1.0 -6.6°
